{"data":{"norad_id":64346,"intl_designator":"2025-126C","name":"STARLINK-34437","alt_names":[],"object_type":"PAYLOAD","status":"ACTIVE","operator":null,"country":"US","launch_date":"2025-06-13","launch_site_code":"AFWTR","launch_vehicle":null,"mission":null,"orbit_class":"UNKNOWN","rcs_meters":null,"size_class":null,"mass_kg":null,"dimensions":null,"purposes":["comms"],"wikipedia_slug":null,"has_3d_model":false,"image_url":null,"decayed_at":null,"tle_current":{"epoch":"2026-09-20T10:18:19.286496Z","epoch_age_seconds":140652,"freshness":"FRESH","line1":"1 64346U 25126C   26263.42938989  .00009410  00000+0  33123-3 0  9998","line2":"2 64346  70.0002 261.3943 0004048 283.9768  76.0957 15.29592023 69907","mean_motion":15.29592023,"eccentricity":0.0004048,"inclination_deg":70.0002,"raan_deg":261.3943,"arg_perigee_deg":283.9768,"mean_anomaly_deg":76.0957,"bstar":0.00033123,"rev_number":6990,"period_min":94.14275037704,"perigee_km":474.25600841363,"apogee_km":479.80595241057,"semimajor_km":6855.1679804121,"source":"CELESTRAK","updated_at":"2026-09-21T09:00:35.315904Z"}}}